Location: York
(31.8935°S, 116.7682°E)
Time: 13:05:51
(UTC+08:00)

Hubble Space Telescope - Visible Passes

Search period start: 05 August 2021 00:00
Search period end: 15 August 2021 00:00
Orbit: 535 x 539 km, 28.5° (Epoch: 04 August)

Date Brightness Start Highest point End Pass type
(mag) Time Alt. Az. Time Alt. Az. Time Alt. Az.
05 Aug 1.6 05:01:57 45° NNE 05:01:57 45° NNE 05:05:22 10° ENE visible
06 Aug 2.1 04:51:35 34° NE 04:51:35 34° NE 04:54:19 10° ENE visible
06 Aug 2.5 06:27:52 10° WNW 06:31:08 22° NNW 06:34:24 10° NNE visible
07 Aug 2.7 04:41:15 25° NE 04:41:15 25° NE 04:43:14 10° ENE visible
07 Aug 2.7 06:17:09 10° WNW 06:20:04 18° NNW 06:22:59 10° NNE visible
08 Aug 3.3 04:30:57 17° NE 04:30:57 17° NE 04:32:08 10° NE visible
08 Aug 2.9 06:06:35 10° WNW 06:09:00 15° NNW 06:11:25 10° NNE visible
09 Aug 3.7 04:20:40 12° NE 04:20:40 12° NE 04:20:59 10° NE visible
09 Aug 3.1 05:56:18 10° NW 05:57:54 12° NNW 05:59:30 10° N visible
